Sign in Sign up

Berlin

Pos Pair Lane Name Born Nation Time
1 11 O Mei Han 1998 China 1:59.55
2 11 I Nikola ZdrŠhalovŠ 1996 Czech Republic 1:59.62
3 14 I Ida NjŚtun 1991 Norway 2:00.13
4 5 I Ivanie Blondin 1990 Canada 2:00.41
5 13 O Elizaveta Kazelina 1996 Russia 2:00.60
6 10 O Bente Kraus 1989 Germany 2:00.92
7 9 O Paige Schwartzburg 1990 USA 2:01.22
8 10 I Jelena Peeters 1985 Belgium 2:01.56
9 9 I Nana Takagi 1992 Japan 2:01.58
10 4 I Maki Tabata 1974 Japan 2:01.62
11 14 O Francesca Lollobrigida 1991 Italy 2:01.63
12 7 I Sofie Karoline Haugen 1995 Norway 2:02.50
13 8 O Saskia Alusalu 1994 Estonia 2:04.10
14 6 O Francesca Bettrone 1991 Italy 2:04.39
15 6 I Magdalena Czyszczoń 1995 Poland 2:04.56
16 12 I Ellen Bjertnes 1994 Norway 2:04.91
17 4 O Nan Sun 1998 China 2:05.10
18 3 I Carlijn Schoutens 1994 USA 2:05.39
19 8 I Xue Zhan 1991 China 2:05.42
20 5 O Ruining Tian 1997 China 2:05.43
21 2 O Dongxue Xi 1999 China 2:06.09
22 7 O Elena MÝller-Rigas 1996 Denmark 2:06.27
23 2 I Camilla Lund 1994 Norway 2:06.65
24 1 O Eliska Drimalova 1995 Czech Republic 2:06.87
25 3 O Rebekah Bradford 1983 USA 2:07.92
26 1 I Briana Kramer 1997 USA 2:08.31
27 13 I Marina Zueva 1992 Belarus 2:44.92
DNS 12 O Vanessa Herzog 1995 Austria

Info

What World Cup B-group
Discipline 1.500
Host Berlin
Nation Germany
Date Saturday 28.Jan 2017
Calendar 2016/2017
Air Temp 14.9 C
Ice Temp -6.1 C
Humidity 22 %